STARLINK-3756, 52309

Orbit data source: Space-Track

STARLINK-3756, 52309 is a payload satellite owned by SpaceX/Seattle (US) in LEO that was launched on Thu, 21 Apr 2022 UTC via an FALCON 9 launch vehicle from the Air Force Eastern Test Range (AFETR). Payload-class satellites include a variety of spacecraft equipped with specific instruments for various scientific and technological missions. These include communications satellites like Starlink; space stations such as the ISS; scientific satellites like the Hubble; Earth observation satellites from companies like Planet Labs, Umbra, and HawkEye 360; GPS; miniature CubeSats for education and research; and military/defense satellites.

Loading next visibility...
Identifier
52309, 2022-041BA
Orbit
LEO
Country
Flag of USUS
Related business
Manufacturer
SpaceX/Seattle
Mission
Operational Commercial Communications
Bus & Motor
STARLINK, Unknown motor
Mass
297 kg wet, ~275 kg dry
Launch date (UTC)
2022-04-21 (4 years ago)
Launch vehicle
FALCON 9
Launch site
Air Force Eastern Test Range (AFETR)
Object type
Payload
Rocket body
Debris
Shape & HBR
Box + 1 Pan, 10.1 m
Radar Cross Section
11.087 m², Large (>1 m²)

Expand to show TLE details & history
Last TLE update: 22 hours ago

TLE from 22 hours ago
0 STARLINK-3756
1 52309U 22041BA  26263.24079961  .00000329  00000-0  22379-4 0  9996
2 52309  53.1599 280.9768 0001160  85.6902 274.4232 15.31698069245431
Epoch: 2026-09-20T05:46Z
TLE epoch observation values (Epoch: 2026-09-20T05:46:45.086Z)
Latitude
-0.00001°
Longitude
-164.84888°
Altitude
471.585 km
Speed
7.632 km/s
True Right ascension
18h 43m 54s
True Declination
0° 00' 00"
Sunlit
Object was in daylight at epoch
Visualization orbit readout
Latitude
Unknown
Longitude
Unknown
Altitude
Unknown
Speed
Unknown
Apparent Right ascension
Unknown
Apparent Declination
Unknown
Sunlit
N/A
Visualization observer readout
Local Sidereal Time
20:50:34
Azimuth
Unknown
Elevation
Unknown
Doppler factor
Unknown
Orbital elements
Apogee altitude
471.797 km
Perigee altitude
470.208 km
Semi-major axis
6,849.139 km
Eccentricity
0.00012
Inclination
53.1599°
RAAN
280.9768°
Arg. of periapsis
85.6902°
True anomaly
274.40995°
Mean anomaly
274.4232°
Eccentric anomaly
274.41657°
Mean motion
3.82903 °/min
Orbital period
94.02 mins
BSTAR
0.000022379
Loading maneuver chart data...
Computing Atmospheric mass density...
Loading historical data...
Loading historical data...
Loading historical data...
Loading historical data...
Loading historical data...
Loading historical data...
Loading historical data...

Documentation

Showing up to 5 results
|